Location: Brahman Valley
(40.6513°N, 111.8855°W)
Time: 14:21:02
(UTC+00:00)

A-11 Canister half - All Passes

Search period start: 08 May 2021 00:00
Search period end: 18 May 2021 00:00
Orbit: 1514 x 1685 km, 47.2° (Epoch: 07 May)

Date Brightness Start Highest point End Pass type
(mag) Time Alt. Az. Time Alt. Az. Time Alt. Az.
08 May - 01:39:37 10° W 01:48:46 61° N 01:58:07 10° ENE daylight
08 May - 03:45:25 10° WNW 03:54:44 67° NNE 04:04:19 10° E visible
08 May - 05:50:31 10° WNW 05:59:48 64° SW 06:09:24 10° SE visible
08 May - 07:57:18 10° W 08:03:25 19° SW 08:09:40 10° SSW visible
08 May - 21:09:45 10° S 21:16:46 25° SE 21:23:45 10° ENE daylight
08 May - 23:11:19 10° SW 23:20:31 76° SSE 23:29:49 10° ENE daylight
09 May - 01:16:39 10° W 01:25:48 62° N 01:35:08 10° ENE daylight
09 May - 03:22:29 10° WNW 03:31:46 65° NNE 03:41:18 10° E visible
09 May - 05:27:35 10° WNW 05:36:54 67° SW 05:46:31 10° SE visible
09 May - 07:34:07 10° W 07:40:36 21° SW 07:47:14 10° S visible
09 May - 20:47:13 10° S 20:53:57 23° SE 21:00:38 10° E daylight
09 May - 22:48:27 10° SW 22:57:39 73° SE 23:06:53 10° ENE daylight
10 May - 00:53:41 10° W 01:02:50 63° NNW 01:12:10 10° ENE daylight
10 May - 02:59:33 10° WNW 03:08:48 64° NNE 03:18:18 10° E visible
10 May - 05:04:40 10° WNW 05:13:59 70° SW 05:23:37 10° SE visible
10 May - 07:10:58 10° W 07:17:46 22° SW 07:24:43 10° S visible
10 May - 20:24:44 10° S 20:31:08 21° SE 20:37:30 10° E daylight
10 May - 22:25:35 10° SW 22:34:46 69° SE 22:43:56 10° ENE daylight
11 May - 00:30:42 10° W 00:39:52 64° NNW 00:49:11 10° ENE daylight
11 May - 02:36:37 10° WNW 02:45:50 63° NNE 02:55:17 10° E daylight
11 May - 04:41:45 10° WNW 04:51:06 73° SW 05:00:44 10° SE visible
11 May - 06:47:52 10° W 06:54:56 24° SW 07:02:11 10° S visible
11 May - 20:02:18 10° SSE 20:08:20 19° SE 20:14:19 10° E daylight
11 May - 22:02:45 10° SW 22:11:52 66° SE 22:21:01 10° ENE daylight
12 May - 00:07:44 10° W 00:16:55 65° NNW 00:26:13 10° ENE daylight
12 May - 02:13:41 10° WNW 02:22:52 62° N 02:32:16 10° E daylight
12 May - 04:18:51 10° WNW 04:28:11 77° SW 04:37:50 10° SE visible
12 May - 06:24:46 10° WNW 06:32:06 26° SW 06:39:37 10° S visible
12 May - 19:39:55 10° SSE 19:45:32 18° SE 19:51:06 10° E daylight
12 May - 21:39:55 10° SW 21:49:00 63° SE 21:58:05 10° ENE daylight
12 May - 23:44:46 10° W 23:53:57 67° NNW 00:03:16 10° ENE daylight
13 May - 01:50:44 10° WNW 01:59:54 61° N 02:09:15 10° E daylight
13 May - 03:55:56 10° WNW 04:05:17 80° SSW 04:14:54 10° SE visible
13 May - 06:01:43 10° WNW 06:09:16 28° SW 06:17:00 10° S visible
13 May - 19:17:35 10° SSE 19:22:44 16° SE 19:27:49 10° E daylight
13 May - 21:17:05 10° SW 21:26:08 59° SE 21:35:08 10° ENE daylight
13 May - 23:21:48 10° W 23:31:01 68° NNW 23:40:19 10° ENE daylight
14 May - 01:27:47 10° WNW 01:36:56 60° N 01:46:14 10° E daylight
14 May - 03:33:01 10° WNW 03:42:22 83° SSW 03:51:59 10° SE visible
14 May - 05:38:40 10° WNW 05:46:25 30° SW 05:54:23 10° S visible
14 May - 18:55:22 10° SSE 18:59:56 15° ESE 19:04:27 10° E daylight
14 May - 20:54:16 10° SW 21:03:16 56° SE 21:12:12 10° ENE daylight
14 May - 22:58:50 10° WSW 23:08:04 70° NNW 23:17:22 10° ENE daylight
15 May - 01:04:50 10° WNW 01:13:57 59° N 01:23:15 10° E daylight
15 May - 03:10:07 10° WNW 03:19:27 86° SSW 03:29:03 10° ESE visible
15 May - 05:15:39 10° WNW 05:23:34 32° SW 05:31:43 10° S visible
15 May - 18:33:15 10° SSE 18:37:08 13° ESE 18:40:58 10° E daylight
15 May - 20:31:27 10° SSW 20:40:24 53° SE 20:49:16 10° ENE daylight
15 May - 22:35:52 10° WSW 22:45:08 72° NNW 22:54:25 10° ENE daylight
16 May - 00:41:52 10° WNW 00:50:59 59° N 01:00:14 10° E daylight
16 May - 02:47:12 10° WNW 02:56:32 89° SSW 03:06:07 10° ESE daylight
16 May - 04:52:39 10° WNW 05:00:44 34° SW 05:09:03 10° SSE visible
16 May - 18:11:23 10° SE 18:14:21 12° ESE 18:17:16 10° ESE daylight
16 May - 20:08:40 10° SSW 20:17:33 50° SE 20:26:19 10° ENE daylight
16 May - 22:12:54 10° WSW 22:22:12 74° NNW 22:31:29 10° ENE daylight
17 May - 00:18:54 10° WNW 00:28:01 58° N 00:37:14 10° E daylight
17 May - 02:24:17 10° WNW 02:33:37 88° NNE 02:43:10 10° ESE daylight
17 May - 04:29:39 10° WNW 04:37:53 36° SW 04:46:21 10° SSE visible
17 May - 17:50:05 10° SE 17:51:33 10° ESE 17:53:00 10° ESE daylight
17 May - 19:45:53 10° SSW 19:54:41 47° SE 20:03:21 10° ENE daylight
17 May - 21:49:56 10° WSW 21:59:15 76° NNW 22:08:33 10° ENE daylight
